Regional Weather Roundup
Issued by NWS

Home | Current Version | Previous Version | Graphics & Text | Print | Product List | Glossary Off
Versions: 1 2 3 4 5 6 7 8 9 10 11 12 13 14 15 16 17 18 19 20 21 22 23 24 25 26 27 28 29 30 31 32 33 34 35 36 37 38 39 40 41 42 43 44 45 46 47 48 49 50

226
ASUS45 KBOU 251907
RWRCO

WEATHER ROUNDUP FOR COLORADO
NATIONAL WEATHER SERVICE DENVER/BOULDER CO
100 PM MDT SAT MAR 25 2017

NOTE: "FAIR" INDICATES FEW OR NO CLOUDS BELOW 12000 FEET WITH NO
SIGNIFICANT WEATHER AND/OR OBSTRUCTIONS TO VISIBILITY.

COZ001>005-013-030-031-252000-
...NORTHWEST COLORADO...

CITY           SKY/WX    TMP DP  RH WIND       PRES   REMARKS
CRAIG          FAIR      58  19  22 CALM      29.95F
HAYDEN         FAIR      55  19  24 E8        29.96F
MEEKER         FAIR      60  21  22 S13G20    29.95F
MOUNT WERNER   NOT AVBL
STEAMBOAT SPGS FAIR      53  25  33 CALM      29.97F
WALDEN         NOT AVBL
$$

COZ006>008-011-252000-
...WEST CENTRAL VALLEYS...

CITY           SKY/WX    TMP DP  RH WIND       PRES   REMARKS
GRAND JUNCTION FAIR      61  27  27 SE12      29.92F
MONTROSE       FAIR      60  19  20 S5        29.98F
EAGLE          SUNNY     54  21  28 CALM      30.01F
RIFLE          FAIR      58  25  28 VRB3      29.95F
DELTA          FAIR      63  21  20 CALM      29.96F
NUCLA          FAIR      59  23  25 SW8       30.03F
$$

COZ017>023-064>068-252000-
...SOUTHWEST COLORADO...

CITY           SKY/WX    TMP DP  RH WIND       PRES   REMARKS
DURANGO        FAIR      55  22  27 VRB3      30.06F
CORTEZ         FAIR      61  22  22 S8        30.01F
PAGOSA SPRINGS FAIR      54  21  28 SW5       30.09F
TELLURIDE      NOT AVBL
WOLF CREEK PAS FAIR      34  10  37 SW18G24   30.25F WCI  23
$$

COZ009-010-012-014-032>034-037-058>063-252000-
...CENTRAL COLORADO...

CITY           SKY/WX    TMP DP  RH WIND       PRES   REMARKS
ASPEN          FAIR      53  23  31 N8        29.99F
BUENA VISTA    FAIR      57  15  18 SE13      30.02F
COPPER MTN     NOT AVBL
BERTHOUD PASS  FAIR      32  23  69 S13       30.19F WCI  22
COTTONWOOD PAS FAIR      54  12  19 E5        30.09F
GUNNISON       FAIR      45  25  45 N6        30.06F
KREMMLING      FAIR      54  23  30 CALM      30.02F
LEADVILLE      FAIR      47   9  21 S10       30.06F
MONARCH PASS   FAIR      39  10  30 SW16      30.29F
SALIDA         FAIR      59   6  12 S15G23    30.09F
SUNLIGHT       FAIR      37  14  38 SW7       30.15F
WILKERSON PASS FAIR      43   9  24 SW6       30.19F
$$

COZ069>075-252000-
...SAN LUIS VALLEY/SANGRE DE CRISTO MOUNTAINS...

CITY           SKY/WX    TMP DP  RH WIND       PRES   REMARKS
ALAMOSA        FAIR      51  28  41 VRB6      30.06F
LA VETA PASS   NOT AVBL
SAGUACHE       FAIR      52  25  35 SE7       30.09F
$$

COZ035-036-038>040-252000-
...NORTHERN COLORADO FRONT RANGE...

CITY           SKY/WX    TMP DP  RH WIND       PRES   REMARKS
DENVER INTL AP PTSUNNY   59  27  29 SE13      29.96F
DMNS CITY PARK   N/A     63  23  21 E12       29.94F
AURORA         PTSUNNY   62  15  16 SE14      29.96F
FRONT RANGE AP PTSUNNY   59  28  31 SE9G17    29.98F
ERIE MUNI ARPT FAIR      59  29  32 E9        29.96F
BOULDER MUN AP FAIR      57  30  35 CALM      29.96F
CENTENNIAL     PTSUNNY   58  24  27 S13       29.97F
BROOMFIELD     PTSUNNY   59  21  23 VRB5      29.97F
FORT COLLINS   FAIR      59  28  30 SE10      29.97F
LONGMONT       FAIR      59  30  32 E6        29.99F
$$

COZ041-046-047-076>085-087-088-252000-
...PIKES PEAK/PALMER DIVIDE AND SOUTHERN FOOTHILLS...

CITY           SKY/WX    TMP DP  RH WIND       PRES   REMARKS
COLO. SPRINGS  PTSUNNY   53  28  38 SE12      30.02F
A. F. ACADEMY  FAIR      53  28  38 SE9       30.01F
SCHRIEVER AFB  FAIR      53  28  38 S12G18    30.02F
ELLICOTT         N/A    N/A N/A N/A SW13      30.01F
FALCON         FAIR      52  26  36 S9G18     30.04F
FORT CARSON    FAIR      55  28  36 SE13      30.00F
LIMON          FAIR      58  30  34 S8        29.98F
MONUMENT HILL  FAIR      45  30  57 S10       30.04S
TRINIDAD       FAIR      58  30  34 E7        30.01F
$$

COZ042>045-048>051-090-091-252000-
...NORTHEAST COLORADO...

CITY           SKY/WX    TMP DP  RH WIND       PRES   REMARKS
GREELEY ARPT   FAIR      59  32  36 VRB3      29.98F
AKRON          FAIR      56  29  35 S8        29.98F
BURLINGTON     FAIR      54  34  46 S6        30.00F
WRAY           NOT AVBL
STERLING       FAIR      59  34  38 SW5       29.96F
HOLYOKE        FAIR      61  32  33 S7        29.99F
FORT MORGAN    FAIR      60  29  30 SE9       29.97F
$$

COZ086-089-092>099-252000-
...SOUTHEAST COLORADO...

CITY           SKY/WX    TMP DP  RH WIND       PRES   REMARKS
PUEBLO         FAIR      58  34  40 SE9       29.99F
LA JUNTA       FAIR      59  37  44 S9        30.00F
LAMAR          FAIR      61  29  29 VRB6      29.99F
SPRINGFIELD      N/A     62  25  24 VRB6      30.00F
$$




USA.gov is the U.S. government's official web portal to all federal, state and local government web resources and services.